Location: Flotzheim
(48.8375°N, 10.8136°E)
Time: 03:59:31
(UTC+00:00)

SL-08 RB Rocket - Pass Details

Date: 23 January 2021
Orbit: 647 x 684 km, 97.8° (Epoch: 26 February)

Event Time Altitude Azimuth Distance (km) Brightness Sun altitude
Exits shadow 18:01:05 44° 88° (E) 903 3.9 -19.6°
Maximum altitude 18:01:32 46° 70° (ENE) 882 3.9 -19.7°
Drops below altitude 10° 18:05:50 10° 357° (N) 2,068 6.2 -20.4°
Sets 18:08:07 0° 352° (N) 2,980 7.1 -20.8°
